• In Switzerland
  • List of Countries
  • For 7 days
  • Water Temperature
  • Satellite Maps
  • Weather Map
  • Weather Widgets
  • user-avatar
    Login

    Hourly Weather Canberra

    Today, 19 August, Sunday

    Time Temperature Precipitation Wind Pressure Humidity
    00:00 +1°C° 0 mm 4 mps 705 mmHg 80%
    01:00 +1°C° 0 mm 5 mps 705 mmHg 80%
    02:00 +1°C° 0 mm 5 mps 705 mmHg 79%
    03:00 0°C° 0 mm 5 mps 705 mmHg 78%
    04:00 0°C° 0 mm 5 mps 704 mmHg 77%
    05:00 0°C° 0 mm 5 mps 705 mmHg 76%
    06:00 0°C° 0 mm 5 mps 705 mmHg 76%
    07:00 0°C° 0 mm 5 mps 705 mmHg 75%
    08:00 +1°C° 0 mm 6 mps 705 mmHg 69%
    09:00 +3°C° 0 mm 7 mps 705 mmHg 63%
    10:00 +5°C° 0 mm 6 mps 706 mmHg 54%
    11:00 +5°C° 0 mm 6 mps 706 mmHg 53%
    12:00 +5°C° 0 mm 7 mps 706 mmHg 53%
    13:00 +5°C° 0 mm 7 mps 706 mmHg 53%
    14:00 +5°C° 0.1 mm 7 mps 706 mmHg 54%
    15:00 +5°C° 0.1 mm 7 mps 707 mmHg 56%
    16:00 +6°C° 0 mm 4 mps 707 mmHg 56%
    17:00 +5°C° 0 mm 4 mps 707 mmHg 61%
    18:00 +4°C° 0 mm 4 mps 708 mmHg 66%
    19:00 +2°C° 0 mm 3 mps 708 mmHg 72%
    20:00 +2°C° 0 mm 3 mps 709 mmHg 73%
    21:00 +1°C° 0 mm 3 mps 709 mmHg 73%
    22:00 +1°C° 0 mm 2 mps 710 mmHg 80%
    23:00 +1°C° 0 mm 2 mps 710 mmHg 80%

    Tomorrow, 20 August, Monday

    Time Temperature Precipitation Wind Pressure Humidity
    00:00 0°C° 0 mm 3 mps 710 mmHg 81%
    01:00 0°C° 0 mm 3 mps 710 mmHg 81%
    02:00 -1°C° 0 mm 3 mps 710 mmHg 82%
    03:00 -1°C° 0 mm 3 mps 710 mmHg 82%
    04:00 -1°C° 0 mm 3 mps 711 mmHg 83%
    05:00 -1°C° 0 mm 2 mps 711 mmHg 84%
    06:00 -2°C° 0 mm 2 mps 711 mmHg 85%
    07:00 -2°C° 0 mm 2 mps 711 mmHg 86%
    08:00 +2°C° 0 mm 2 mps 711 mmHg 73%
    09:00 +4°C° 0 mm 2 mps 712 mmHg 59%
    10:00 +7°C° 0 mm 3 mps 712 mmHg 46%
    11:00 +8°C° 0 mm 3 mps 712 mmHg 43%
    12:00 +10°C° 0 mm 3 mps 712 mmHg 41%
    13:00 +11°C° 0 mm 3 mps 711 mmHg 38%
    14:00 +10°C° 0 mm 3 mps 711 mmHg 43%
    15:00 +10°C° 0 mm 4 mps 711 mmHg 47%
    16:00 +8°C° 0 mm 4 mps 710 mmHg 52%
    17:00 +7°C° 0 mm 4 mps 710 mmHg 61%
    18:00 +5°C° 0 mm 4 mps 710 mmHg 69%
    19:00 +4°C° 0 mm 4 mps 710 mmHg 78%
    20:00 +4°C° 0 mm 4 mps 710 mmHg 80%
    21:00 +3°C° 0 mm 4 mps 710 mmHg 81%
    22:00 +3°C° 0 mm 4 mps 710 mmHg 83%
    23:00 +3°C° 0 mm 4 mps 710 mmHg 82%

    Day after tomorrow, 21 August, Tuesday

    Time Temperature Precipitation Wind Pressure Humidity
    00:00 +3°C° 0 mm 4 mps 709 mmHg 82%
    01:00 +3°C° 0 mm 4 mps 709 mmHg 81%
    02:00 +3°C° 0 mm 4 mps 708 mmHg 81%
    03:00 +2°C° 0 mm 5 mps 708 mmHg 80%
    04:00 +2°C° 0 mm 5 mps 708 mmHg 79%
    05:00 +2°C° 0 mm 5 mps 708 mmHg 79%
    06:00 +3°C° 0 mm 5 mps 708 mmHg 80%
    07:00 +3°C° 0 mm 5 mps 708 mmHg 80%
    08:00 +5°C° 0 mm 5 mps 708 mmHg 76%
    09:00 +5°C° 0 mm 6 mps 708 mmHg 72%
    10:00 +7°C° 0 mm 6 mps 707 mmHg 68%
    11:00 +7°C° 0 mm 6 mps 707 mmHg 66%
    12:00 +7°C° 0 mm 6 mps 707 mmHg 64%
    13:00 +8°C° 0 mm 7 mps 706 mmHg 62%
    14:00 +7°C° 0 mm 6 mps 706 mmHg 64%
    15:00 +7°C° 0 mm 6 mps 706 mmHg 67%
    16:00 +5°C° 0 mm 6 mps 705 mmHg 69%
    17:00 +5°C° 0 mm 5 mps 706 mmHg 72%
    18:00 +5°C° 0 mm 5 mps 706 mmHg 76%
    19:00 +4°C° 0 mm 4 mps 706 mmHg 79%
    20:00 +4°C° 0 mm 4 mps 706 mmHg 81%
    21:00 +3°C° 0 mm 3 mps 707 mmHg 82%
    22:00 +3°C° 0 mm 3 mps 707 mmHg 84%
    23:00 +3°C° 0 mm 3 mps 707 mmHg 86%

    22 August, Wednesday

    Time Temperature Precipitation Wind Pressure Humidity
    00:00 +3°C° 0 mm 2 mps 707 mmHg 89%
    01:00 +3°C° 0 mm 2 mps 707 mmHg 91%
    02:00 +2°C° 0 mm 2 mps 707 mmHg 93%
    03:00 +2°C° 0 mm 2 mps 707 mmHg 94%
    04:00 +2°C° 0 mm 1 mps 707 mmHg 96%
    05:00 +2°C° 0 mm 1 mps 707 mmHg 96%
    06:00 +2°C° 0 mm 1 mps 707 mmHg 96%
    07:00 +2°C° 0 mm 1 mps 708 mmHg 96%
    08:00 +5°C° 0 mm 1 mps 708 mmHg 84%
    09:00 +7°C° 0 mm 1 mps 709 mmHg 72%
    10:00 +10°C° 0 mm 1 mps 709 mmHg 60%
    11:00 +10°C° 0 mm 2 mps 709 mmHg 57%
    12:00 +12°C° 0 mm 2 mps 709 mmHg 53%
    13:00 +13°C° 0 mm 2 mps 709 mmHg 49%
    14:00 +13°C° 0 mm 2 mps 708 mmHg 52%
    15:00 +11°C° 0 mm 3 mps 708 mmHg 56%
    16:00 +10°C° 0 mm 3 mps 708 mmHg 60%
    17:00 +8°C° 0 mm 2 mps 708 mmHg 71%
    18:00 +6°C° 0 mm 2 mps 709 mmHg 81%
    19:00 +5°C° 0 mm 1 mps 709 mmHg 92%
    20:00 +4°C° 0 mm 1 mps 709 mmHg 93%
    21:00 +4°C° 0 mm 1 mps 710 mmHg 94%
    22:00 +2°C° 0 mm 0 mps 710 mmHg 95%
    23:00 +2°C° 0 mm 0 mps 710 mmHg 95%

    23 August, Thursday

    Time Temperature Precipitation Wind Pressure Humidity
    00:00 +2°C° 0 mm 0 mps 710 mmHg 95%
    01:00 +1°C° 0 mm 0 mps 709 mmHg 96%
    02:00 +1°C° 0 mm 0 mps 709 mmHg 96%
    03:00 +1°C° 0 mm 0 mps 709 mmHg 96%
    04:00 +1°C° 0 mm 0 mps 709 mmHg 96%
    05:00 +1°C° 0 mm 0 mps 709 mmHg 96%
    06:00 +1°C° 0 mm 0 mps 709 mmHg 95%
    07:00 +1°C° 0 mm 0 mps 710 mmHg 95%
    08:00 +5°C° 0 mm 1 mps 710 mmHg 83%
    09:00 +8°C° 0 mm 1 mps 711 mmHg 70%
    10:00 +11°C° 0 mm 1 mps 711 mmHg 57%
    11:00 +12°C° 0 mm 1 mps 711 mmHg 54%
    12:00 +13°C° 0 mm 2 mps 710 mmHg 50%
    13:00 +14°C° 0 mm 2 mps 710 mmHg 46%
    14:00 +14°C° 0 mm 2 mps 710 mmHg 47%
    15:00 +14°C° 0 mm 2 mps 709 mmHg 49%
    16:00 +13°C° 0 mm 1 mps 709 mmHg 50%
    17:00 +11°C° 0 mm 1 mps 709 mmHg 61%
    18:00 +8°C° 0 mm 1 mps 710 mmHg 71%
    19:00 +5°C° 0 mm 0 mps 710 mmHg 82%
    20:00 +6°C° 0 mm 1 mps 710 mmHg 85%
    21:00 +5°C° 0 mm 1 mps 711 mmHg 88%
    22:00 +5°C° 0 mm 1 mps 711 mmHg 90%
    23:00 +4°C° 0 mm 1 mps 711 mmHg 92%

    24 August, Friday

    Time Temperature Precipitation Wind Pressure Humidity
    00:00 +4°C° 0 mm 1 mps 711 mmHg 93%
    01:00 +4°C° 0 mm 1 mps 711 mmHg 95%
    02:00 +4°C° 0 mm 1 mps 710 mmHg 95%
    03:00 +3°C° 0 mm 1 mps 710 mmHg 95%
    04:00 +3°C° 0 mm 1 mps 710 mmHg 96%
    05:00 +3°C° 0 mm 1 mps 710 mmHg 95%
    06:00 +3°C° 0 mm 1 mps 711 mmHg 95%
    07:00 +3°C° 0 mm 1 mps 711 mmHg 94%
    08:00 +5°C° 0 mm 2 mps 712 mmHg 83%
    09:00 +8°C° 0 mm 2 mps 712 mmHg 73%
    10:00 +12°C° 0 mm 2 mps 713 mmHg 62%
    11:00 +13°C° 0.1 mm 2 mps 712 mmHg 60%
    12:00 +13°C° 0.1 mm 3 mps 712 mmHg 59%
    13:00 +13°C° 0.1 mm 3 mps 711 mmHg 57%
    14:00 +13°C° 0.2 mm 3 mps 711 mmHg 63%
    15:00 +12°C° 0.2 mm 4 mps 711 mmHg 68%
    16:00 +12°C° 0.2 mm 4 mps 711 mmHg 74%
    17:00 +10°C° 0 mm 4 mps 711 mmHg 80%
    18:00 +9°C° 0 mm 3 mps 711 mmHg 87%
    19:00 +7°C° 0 mm 3 mps 712 mmHg 94%
    20:00 +7°C° 0 mm 3 mps 712 mmHg 94%
    21:00 +6°C° 0 mm 4 mps 712 mmHg 94%
    22:00 +5°C° 0 mm 4 mps 712 mmHg 94%
    23:00 +5°C° 0 mm 3 mps 712 mmHg 94%
    Show more